Location: Beaurecueil
(43.5122°N, 5.5450°E)
Time: 14:21:57
(UTC+00:00)

NOSS 2-2 (E) - Pass Details

Date: 18 September 2020
Orbit: 468 x 1739 km, 63.3° (Epoch: 26 October)

Event Time Altitude Azimuth Distance (km) Brightness Sun altitude
Rises 19:10:49 0° 228° (SW) 2,501 7.1 -16.6°
Reaches altitude 10° 19:12:54 10° 233° (SW) 1,622 6.2 -17.0°
Maximum altitude 19:16:18 51° 311° (NW) 622 3.9 -17.6°
Drops below altitude 10° 19:20:07 10° 29° (NNE) 1,818 5.9 -18.2°
Sets 19:22:35 0° 34° (NE) 2,849 6.8 -18.7°
